Date,TemperatureHighF,TemperatureAvgF,TemperatureLowF,DewpointHighF,DewpointAvgF,DewpointLowF,HumidityHigh,HumidityAvg,HumidityLow,PressureMaxIn,PressureMinIn,WindSpeedMaxMPH,WindSpeedAvgMPH,GustSpeedMaxMPH,PrecipitationSumIn
2014-1-1,33.8,26.1,15.8,21.2,15.0,6.8,86,64,44,30.78,30.63,6,1,0,0.00
2014-1-2,30.2,21.8,12.2,23.0,17.1,10.4,93,83,69,30.63,30.11,15,7,0,0.00
2014-1-3,17.6,10.9,5.0,15.8,8.3,-0.4,93,89,78,30.86,30.08,15,7,0,0.00
2014-1-4,24.8,12.3,-0.4,12.2,3.8,-4.0,92,71,40,30.91,30.68,12,2,0,0.00
2014-1-5,37.4,21.4,6.8,37.4,19.0,5.0,100,91,64,30.71,30.13,7,0,0,0.00
2014-1-6,55.4,38.4,17.6,55.4,31.2,-0.4,100,78,45,30.13,29.73,13,3,0,0.00
2014-1-7,17.6,7.3,3.2,1.4,-11.2,-16.6,52,43,31,30.76,30.12,12,4,0,0.00
2014-1-8,21.2,14.3,5.0,6.8,-0.8,-7.6,79,52,36,30.92,30.76,9,1,0,0.00
2014-1-9,33.8,23.6,12.2,15.8,11.3,5.0,93,62,38,31.01,30.86,10,1,0,0.00
2014-1-10,33.8,29.1,19.4,33.8,25.4,14.0,100,86,74,30.97,30.59,5,0,0,0.00
2014-1-11,60.8,45.1,33.8,60.8,44.7,33.8,100,99,88,30.59,29.67,9,1,0,0.00
2014-1-12,51.8,43.1,33.8,48.2,29.8,24.8,88,60,46,30.43,29.75,10,2,0,0.00
2014-1-13,50.0,38.6,26.6,39.2,31.6,24.8,100,77,54,30.51,30.26,7,1,0,0.00
2014-1-14,44.6,41.9,37.4,44.6,40.1,33.8,100,93,87,30.27,30.04,4,0,0,0.00
2014-1-15,46.4,37.7,30.2,39.2,35.6,30.2,100,93,76,30.37,30.22,6,1,0,0.00
2014-1-16,41.0,37.2,32.0,39.2,31.9,28.4,93,81,65,30.32,30.22,12,3,0,0.00
2014-1-17,42.8,32.8,24.8,32.0,27.0,24.8,100,82,53,30.35,30.27,10,2,0,0.00
2014-1-18,39.2,32.6,26.6,33.8,26.4,17.6,100,79,60,30.27,30.04,12,2,0,0.00
2014-1-19,35.6,28.9,24.8,23.0,18.5,14.0,75,66,55,30.24,30.02,12,4,0,0.00
2014-1-20,42.8,35.7,28.4,30.2,23.7,14.0,75,62,49,30.29,29.95,12,2,0,0.00
2014-1-21,28.4,17.8,10.4,17.6,10.5,5.0,93,76,46,30.40,30.25,20,7,0,0.00
2014-1-22,17.6,9.5,3.2,8.6,-1.5,-7.6,92,64,35,30.39,30.18,16,7,0,0.00
2014-1-23,23.0,11.9,3.2,6.8,-0.7,-5.8,85,59,39,30.68,30.39,9,1,0,0.00
2014-1-24,21.2,13.7,6.8,3.2,-2.6,-7.6,79,50,28,30.76,30.46,14,3,0,0.00
2014-1-25,23.0,19.1,14.0,21.2,12.0,1.4,93,76,54,30.46,29.82,8,2,0,0.00
2014-1-26,24.8,19.5,12.2,17.6,5.4,-4.0,93,56,33,30.28,29.84,9,2,0,0.00
2014-1-27,42.8,32.3,21.2,26.6,19.5,14.0,80,61,49,30.17,29.98,9,4,0,0.00
2014-1-28,39.2,16.2,8.6,21.2,-6.7,-14.8,67,37,23,30.74,30.06,12,2,0,0.00
2014-1-29,26.6,16.9,10.4,10.4,-1.1,-9.4,92,50,24,30.67,30.44,10,2,0,0.00
2014-1-30,30.2,18.8,5.0,10.4,2.3,-4.0,79,52,29,30.84,30.58,10,1,0,0.00
2014-1-31,41.0,30.0,17.6,23.0,13.0,8.6,69,51,31,30.60,30.45,7,1,0,0.00
2014-2-1,46.4,35.4,26.6,30.2,22.6,19.4,81,62,34,30.71,30.40,10,2,0,0.00
2014-2-2,53.6,39.7,28.4,39.2,32.2,26.6,93,76,47,30.47,30.27,7,1,0,0.00
2014-2-3,41.0,31.4,24.8,33.8,29.3,21.2,100,93,70,30.70,30.45,12,4,0,0.00
2014-2-4,37.4,26.9,15.8,24.8,20.3,12.2,93,77,48,30.84,30.62,8,2,0,0.00
2014-2-5,33.8,30.2,26.6,33.8,29.4,23.0,100,97,75,30.64,30.02,14,3,0,0.00
2014-2-6,32.0,24.2,17.6,24.8,16.0,10.4,93,72,47,30.67,30.34,14,3,0,0.00
2014-2-7,35.6,25.3,14.0,17.6,13.7,8.6,93,66,33,30.69,30.55,7,1,0,0.00
2014-2-8,32.0,23.7,14.0,14.0,4.4,-2.2,73,46,25,30.71,30.53,7,1,0,0.00
2014-2-9,32.0,21.9,10.4,23.0,11.9,5.0,93,69,37,30.58,30.37,9,2,0,0.00
2014-2-10,28.4,21.8,10.4,19.4,9.8,5.0,93,62,40,30.67,30.37,17,3,0,0.00
2014-2-11,26.6,16.8,6.8,8.6,3.8,1.4,92,60,34,30.86,30.66,16,4,0,0.00
2014-2-12,26.6,17.1,3.2,12.2,3.5,-2.2,85,58,29,30.97,30.69,8,2,0,0.00
2014-2-13,32.0,27.4,19.4,32.0,27.0,12.2,100,98,74,30.69,29.40,17,8,0,0.00
2014-2-14,42.8,34.5,26.6,37.4,28.3,23.0,100,81,46,30.16,29.41,12,3,0,0.00
2014-2-15,39.2,30.3,24.8,32.0,25.3,14.0,100,83,56,30.17,29.98,14,4,0,0.00
2014-2-16,32.0,23.9,19.4,17.6,9.9,6.8,74,56,37,30.49,30.14,15,2,0,0.00
2014-2-17,33.8,22.8,15.8,12.2,3.2,-4.0,74,46,23,30.74,30.49,13,3,0,0.00
2014-2-18,41.0,28.0,19.4,33.8,22.1,8.6,93,79,59,30.70,30.30,7,0,0,0.00
2014-2-19,42.8,30.7,17.6,39.2,27.7,15.8,100,89,66,30.49,30.05,9,0,0,0.00
2014-2-20,51.8,41.1,30.2,35.6,28.0,23.0,93,62,35,30.59,30.34,8,1,0,0.00
2014-2-21,44.6,37.9,30.2,44.6,37.8,30.2,100,100,93,30.41,30.03,0,0,0,0.00
2014-2-22,55.4,38.8,26.6,33.8,25.5,17.6,100,68,24,30.42,30.27,12,2,0,0.00
2014-2-23,53.6,41.1,26.6,32.0,27.1,24.8,93,62,33,30.40,30.19,5,0,0,0.00
2014-2-24,44.6,34.0,24.8,28.4,13.5,6.8,61,44,30,30.46,30.17,14,2,0,0.00
2014-2-25,33.8,24.3,15.8,17.6,11.8,6.8,86,61,38,30.46,30.29,12,1,0,0.00
2014-2-26,32.0,21.4,12.2,23.0,8.9,-7.6,86,62,30,30.36,30.18,15,1,0,0.00
2014-2-27,32.0,18.2,6.8,15.8,1.3,-14.8,79,51,27,30.49,29.98,12,2,0,0.00
2014-2-28,24.8,14.8,6.8,5.0,-5.8,-13.0,73,41,26,30.81,30.49,10,1,0,0.00
2014-3-1,37.4,24.0,8.6,17.6,7.9,1.4,79,53,30,30.81,30.50,10,1,0,0.00
2014-3-2,39.2,34.5,28.4,24.8,19.3,12.2,60,54,48,30.50,30.35,10,1,0,0.00
2014-3-3,28.4,19.9,12.2,12.2,0.4,-5.8,63,43,33,30.73,30.40,14,6,0,0.00
2014-3-4,30.2,19.8,8.6,8.6,-0.2,-4.0,62,44,27,30.81,30.62,2,0,0,0.00
2014-3-5,35.6,29.1,23.0,15.8,10.3,3.2,64,47,30,30.84,30.58,14,2,0,0.00
2014-3-6,32.0,21.8,12.2,10.4,-0.5,-5.8,59,40,21,31.01,30.84,15,3,0,0.00
2014-3-7,39.2,30.3,19.4,26.6,18.7,6.8,74,62,56,30.87,30.30,7,0,0,0.00
2014-3-8,59.0,43.8,28.4,32.0,28.0,24.8,93,58,31,30.30,30.11,10,0,0,0.00
2014-3-9,42.8,38.7,33.8,28.4,17.4,8.6,65,44,27,30.39,30.26,13,2,0,0.00
2014-3-10,51.8,41.6,33.8,32.0,25.8,14.0,75,55,40,30.31,29.98,8,0,0,0.00
2014-3-11,66.2,47.5,32.0,35.6,30.6,26.6,93,59,24,30.07,29.93,14,1,0,0.00
2014-3-12,53.6,44.4,32.0,46.4,36.9,24.8,93,75,57,30.06,29.40,17,1,0,0.00
2014-3-13,42.8,22.2,15.8,41.0,3.9,-4.0,93,47,31,30.47,29.40,18,8,0,0.00
2014-3-14,46.4,31.1,15.8,41.0,11.0,-2.2,93,45,27,30.59,29.40,12,2,0,0.00
2014-3-15,59.0,47.1,35.6,30.2,25.9,21.2,75,46,25,30.37,30.10,10,1,0,0.00
2014-3-16,41.0,32.4,28.4,21.2,8.4,1.4,51,37,26,30.57,30.37,14,5,0,0.00
2014-3-17,33.8,26.6,19.4,5.0,0.3,-5.8,46,33,20,30.52,30.40,12,4,0,0.00
2014-3-18,44.6,32.2,21.2,15.8,3.5,-7.6,54,34,12,30.67,30.51,12,1,0,0.00
2014-3-19,41.0,34.5,24.8,39.2,29.2,15.8,100,82,55,30.69,30.21,8,0,0,0.00
2014-3-20,55.4,44.8,39.2,41.0,32.1,23.0,100,67,33,30.27,30.08,12,1,0,0.00
2014-3-21,50.0,42.4,30.2,24.8,20.3,17.6,75,43,28,30.43,30.27,15,2,0,0.00
2014-3-22,64.4,45.3,28.4,33.8,26.9,23.0,86,53,24,30.44,30.09,14,2,0,0.00
2014-3-23,41.0,36.7,26.6,26.6,16.0,3.2,65,44,26,30.52,30.35,14,4,0,0.00
2014-3-24,33.8,26.1,19.4,12.2,4.6,1.4,63,42,25,30.62,30.47,15,3,0,0.00
2014-3-25,39.2,29.5,17.6,15.8,12.4,6.8,80,52,28,30.55,30.24,12,1,0,0.00
2014-3-26,33.8,30.6,23.0,19.4,8.4,-2.2,60,41,25,30.61,30.13,20,6,0,0.00
2014-3-27,44.6,32.4,21.2,17.6,8.0,3.2,58,39,19,30.78,30.61,10,2,0,0.00
2014-3-28,51.8,42.7,33.8,50.0,36.1,17.6,100,79,45,30.62,30.33,0,0,0,0.00
2014-3-29,48.2,45.8,39.2,48.2,42.8,37.4,100,89,66,30.56,30.09,10,0,0,0.00
2014-3-30,46.4,43.7,41.0,46.4,42.1,37.4,100,94,81,30.09,29.88,17,8,0,0.00
2014-3-31,53.6,43.9,37.4,39.2,32.7,28.4,93,67,41,30.46,30.06,14,8,0,0.00
2014-4-1,60.8,45.7,30.2,35.6,30.4,26.6,93,60,31,30.51,30.31,10,1,0,0.00
2014-4-2,57.2,45.1,37.4,42.8,37.1,33.8,93,75,51,30.51,30.39,7,0,0,0.00
2014-4-3,66.2,52.9,39.2,41.0,24.9,10.4,93,44,12,30.50,30.34,12,1,0,0.00
2014-4-4,46.4,42.3,39.2,44.6,38.7,35.6,100,87,76,30.44,30.13,9,1,0,0.00
2014-4-5,53.6,45.4,39.2,42.8,32.1,23.0,100,64,35,30.44,30.10,14,2,0,0.00
2014-4-6,60.8,46.2,32.0,30.2,20.0,10.4,75,41,15,30.57,30.44,12,1,0,0.00
2014-4-7,53.6,43.8,35.6,46.4,33.2,12.2,100,70,21,30.58,30.09,9,1,0,0.00
2014-4-8,66.2,53.1,46.4,55.4,43.5,32.0,100,75,39,30.09,29.73,14,2,0,0.00
2014-4-9,60.8,50.7,42.8,35.6,28.2,14.0,76,45,25,30.40,29.99,16,4,0,0.00
2014-4-10,66.2,50.6,30.2,33.8,26.2,14.0,75,42,26,30.55,30.36,14,4,0,0.00
2014-4-11,75.2,59.7,50.0,51.8,40.8,32.0,88,52,31,30.38,30.26,12,1,0,0.00
2014-4-12,73.4,59.6,44.6,51.8,39.2,28.4,94,55,20,30.57,30.37,13,1,0,0.00
2014-4-13,82.4,63.8,46.4,55.4,45.3,35.6,71,53,30,30.56,30.28,16,3,0,0.00
2014-4-14,78.8,69.0,57.2,57.2,53.7,46.4,94,61,34,30.35,30.16,15,6,0,0.00
2014-4-15,66.2,57.5,33.8,66.2,53.9,32.0,100,88,68,30.29,29.85,15,6,0,0.00
2014-4-16,46.4,37.8,30.2,32.0,17.9,12.2,93,48,27,30.95,30.29,17,6,0,0.00
2014-4-17,50.0,40.8,32.0,33.8,23.2,14.0,81,52,25,31.08,30.95,10,2,0,0.00
2014-4-18,50.0,41.8,32.0,33.8,28.8,24.8,93,63,40,30.98,30.62,9,0,0,0.00
2014-4-19,66.2,53.0,37.4,37.4,26.7,14.0,87,45,14,30.72,30.56,15,3,0,0.00
2014-4-20,60.8,50.7,39.2,30.2,26.1,21.2,65,40,23,30.84,30.70,10,2,0,0.00
2014-4-21,71.6,52.1,33.8,42.8,28.0,12.2,93,49,11,30.70,30.24,13,2,0,0.00
2014-4-22,73.4,57.7,42.8,53.6,45.6,39.2,93,67,33,30.24,29.86,13,1,0,0.00
2014-4-23,60.8,51.6,42.8,51.8,36.8,30.2,88,58,38,30.21,29.85,16,6,0,0.00
2014-4-24,60.8,50.5,41.0,30.2,16.7,8.6,61,30,14,30.39,30.20,17,6,0,0.00
2014-4-25,64.4,51.5,35.6,44.6,24.8,15.8,87,40,18,30.42,30.14,10,2,0,0.00
2014-4-26,66.2,53.3,44.6,51.8,44.3,37.4,100,75,37,30.25,30.03,10,1,0,0.00
2014-4-27,55.4,51.0,42.8,37.4,34.2,30.2,81,54,41,30.50,30.25,14,4,0,0.00
2014-4-28,66.2,53.6,37.4,39.2,32.9,26.6,93,51,23,30.50,30.34,13,1,0,0.00
2014-4-29,55.4,47.2,42.8,41.0,39.0,35.6,87,74,54,30.79,30.45,12,3,0,0.00
2014-4-30,48.2,43.8,41.0,48.2,42.3,37.4,100,94,87,30.77,30.34,7,1,0,0.00
2014-5-1,78.8,63.1,48.2,60.8,51.0,41.0,100,72,28,30.34,30.00,12,1,0,0.00
2014-5-2,68.0,61.4,51.8,50.0,39.3,32.0,77,47,28,30.21,30.07,12,1,0,0.00
2014-5-3,69.8,57.7,44.6,51.8,41.1,33.8,94,59,28,30.25,30.07,12,1,0,0.00
2014-5-4,64.4,56.7,48.2,51.8,38.0,23.0,94,54,23,30.16,29.98,12,2,0,0.00
2014-5-5,68.0,57.7,50.0,37.4,29.6,17.6,62,38,15,30.26,30.15,14,4,0,0.00
2014-5-6,68.0,57.9,48.2,35.6,30.5,24.8,58,37,20,30.44,30.23,12,2,0,0.00
2014-5-7,55.4,46.5,41.0,35.6,33.1,28.4,81,62,36,30.55,30.44,0,0,0,0.00
2014-5-13,68.0,59.4,53.6,44.6,43.3,41.0,72,57,37,30.64,30.54,5,0,0,0.00
2014-5-14,75.2,60.2,50.0,59.0,50.7,42.8,94,72,50,30.67,30.54,10,1,0,0.00
2014-5-15,69.8,64.9,60.8,68.0,63.5,59.0,100,95,88,30.60,30.42,10,1,0,0.00
2014-5-16,68.0,65.1,57.2,68.0,64.1,55.4,100,97,88,30.42,30.15,14,4,0,0.00
2014-5-17,69.8,60.2,50.0,55.4,44.0,35.6,94,60,32,30.48,30.21,9,1,0,0.00
2014-5-18,64.4,55.8,44.6,46.4,38.6,32.0,100,57,34,30.55,30.47,9,1,0,0.00
2014-5-19,71.6,58.9,41.0,42.8,35.4,28.4,87,46,21,30.59,30.41,10,2,0,0.00
2014-5-20,78.8,65.1,44.6,46.4,38.3,26.6,93,45,18,30.50,30.30,10,1,0,0.00
2014-5-21,75.2,68.0,60.8,57.2,50.8,41.0,82,55,38,30.34,30.24,6,0,0,0.00
2014-5-22,64.4,62.3,59.0,62.6,60.3,57.2,100,93,82,30.24,30.14,4,0,0,0.00
2014-5-23,71.6,62.6,57.2,59.0,56.8,50.0,100,84,49,30.31,30.18,13,0,0,0.00
2014-5-24,71.6,60.0,53.6,60.8,55.3,51.8,100,86,50,30.45,30.28,7,0,0,0.00
2014-5-25,80.6,66.0,51.8,57.2,49.0,39.2,100,63,23,30.45,30.34,8,0,0,0.00
2014-5-26,87.8,73.2,53.6,57.2,50.0,41.0,94,52,21,30.42,30.21,7,0,0,0.00
2014-5-27,89.6,77.2,62.6,64.4,58.6,48.2,83,55,25,30.25,30.09,9,0,0,0.00
2014-5-28,73.4,59.7,53.6,64.4,54.4,46.4,94,83,69,30.53,30.13,6,0,0,0.00
2014-5-29,69.8,59.0,51.8,48.2,43.6,39.2,77,58,37,30.57,30.48,8,1,0,0.00
2014-5-30,77.0,64.6,51.8,57.2,47.8,41.0,82,57,31,30.52,30.31,13,1,0,0.00
2014-5-31,73.4,63.8,53.6,53.6,47.5,39.2,88,59,31,30.64,30.44,13,4,0,0.00
2014-6-1,78.8,65.3,50.0,51.8,43.1,32.0,94,52,19,30.72,30.58,8,0,0,0.00
2014-6-2,82.4,69.3,50.0,59.0,51.3,42.8,88,56,34,30.62,30.35,9,1,0,0.00
2014-6-3,91.4,73.9,59.0,71.6,63.4,55.4,94,73,38,30.37,30.13,10,0,0,0.00
2014-6-4,86.0,73.7,66.2,68.0,59.9,50.0,100,66,33,30.19,30.07,9,0,0,0.00
2014-6-5,77.0,66.8,60.8,62.6,57.3,48.2,100,74,41,30.16,29.99,6,0,0,0.00
2014-6-6,75.2,66.1,57.2,53.6,50.2,48.2,77,58,41,30.31,30.15,12,2,0,0.00
2014-6-7,82.4,69.6,55.4,60.8,53.5,48.2,94,61,32,30.35,30.25,7,0,0,0.00
2014-6-8,87.8,73.0,55.4,60.8,55.5,48.2,100,61,27,30.32,30.19,9,0,0,0.00
2014-6-9,69.8,65.5,62.6,66.2,62.2,55.4,100,90,60,30.32,30.24,0,0,0,0.00
2014-6-10,77.0,70.2,64.4,68.0,66.2,64.4,100,88,69,30.33,30.26,0,0,0,0.00
2014-6-11,69.8,65.5,60.8,68.0,59.8,55.4,94,82,68,30.48,30.33,7,0,0,0.00
2014-6-12,68.0,63.9,59.0,68.0,62.4,57.2,100,95,82,30.45,30.27,6,0,0,0.00
2014-6-13,80.6,69.7,66.2,71.6,67.9,66.2,100,95,65,30.27,30.04,0,0,0,0.00
2014-6-14,73.4,66.8,59.0,68.0,56.6,46.4,100,72,46,30.39,30.14,12,2,0,0.00
2014-6-15,80.6,68.0,57.2,59.0,53.1,50.0,88,61,37,30.45,30.37,9,2,0,0.00
2014-6-16,86.0,71.2,57.2,60.8,57.5,55.4,94,66,37,30.52,30.37,9,0,0,0.00
2014-6-17,95.0,79.4,64.4,68.0,63.6,59.0,88,62,32,30.42,30.21,0,0,0,0.00
2014-6-18,87.8,81.7,71.6,69.8,64.0,59.0,83,56,38,30.32,30.14,16,1,0,0.00
2014-6-19,78.8,71.8,64.4,69.8,65.6,59.0,94,81,65,30.37,30.28,4,0,0,0.00
2014-6-20,80.6,69.5,55.4,60.8,49.4,41.0,94,54,28,30.38,30.24,9,1,0,0.00
2014-6-21,80.6,69.0,57.2,55.4,49.2,44.6,77,52,30,30.34,30.21,6,0,0,0.00
2014-6-22,82.4,70.1,59.0,57.2,53.6,48.2,88,59,34,30.39,30.28,8,0,0,0.00
2014-6-23,86.0,71.5,57.2,62.6,57.4,53.6,94,64,35,30.49,30.39,9,1,0,0.00
2014-6-24,84.2,73.0,60.8,64.4,58.5,55.4,94,63,39,30.50,30.33,9,1,0,0.00
2014-6-25,89.6,76.6,64.4,71.6,66.3,57.2,94,72,49,30.36,30.15,12,1,0,0.00
2014-6-26,86.0,77.0,69.8,71.6,68.0,64.4,100,76,51,30.32,30.16,8,1,0,0.00
2014-6-27,84.2,75.4,68.0,68.0,60.3,50.0,94,63,32,30.57,30.32,7,0,0,0.00
2014-6-28,87.8,74.8,59.0,62.6,56.6,50.0,94,58,29,30.61,30.53,5,0,0,0.00
2014-6-29,86.0,73.3,60.8,64.4,60.1,55.4,94,66,37,30.62,30.45,7,1,0,0.00
2014-6-30,87.8,73.9,60.8,68.0,61.8,59.0,94,69,38,30.48,30.27,8,1,0,0.00
2014-7-1,91.4,80.2,68.0,71.6,68.1,66.2,94,69,43,30.31,30.13,10,1,0,0.00
2014-7-2,95.0,80.9,73.4,75.2,71.6,68.0,94,75,49,30.28,30.12,8,1,0,0.00
2014-7-3,89.6,77.6,69.8,75.2,71.6,68.0,100,84,55,30.33,30.19,9,1,0,0.00
2014-7-4,71.6,68.8,64.4,69.8,62.5,51.8,100,82,53,30.37,30.25,12,3,0,0.00
2014-7-5,82.4,71.6,60.8,57.2,50.6,46.4,77,50,30,30.47,30.37,10,1,0,0.00
2014-7-6,86.0,73.6,57.2,62.6,54.9,50.0,94,58,29,30.45,30.25,9,1,0,0.00
2014-7-7,91.4,80.7,68.0,68.0,63.7,60.8,83,59,36,30.28,30.05,10,2,0,0.00
2014-7-8,93.2,80.5,69.8,73.4,68.1,64.4,100,70,41,30.19,29.98,12,2,0,0.00
2014-7-9,87.8,76.8,68.0,71.6,65.8,60.8,94,72,40,30.31,30.09,8,1,0,0.00
2014-7-10,86.0,73.3,66.2,68.0,64.8,60.8,100,77,43,30.49,30.31,0,0,0,0.00
2014-7-11,87.8,76.0,64.4,68.0,59.1,51.8,100,60,31,30.57,30.48,8,0,0,0.00
2014-7-12,87.8,76.4,62.6,66.2,62.8,59.0,100,66,40,30.58,30.44,7,1,0,0.00
2014-7-13,86.0,76.7,69.8,73.4,68.4,59.0,88,76,62,30.47,30.20,9,1,0,0.00
2014-7-14,86.0,75.7,71.6,73.4,71.4,68.0,100,87,62,30.27,30.16,6,0,0,0.00
2014-7-15,86.0,76.6,73.4,75.2,72.4,71.6,100,88,66,30.17,30.05,8,0,0,0.00
2014-7-16,84.2,73.5,66.2,73.4,63.2,55.4,100,74,39,30.24,30.08,6,0,0,0.00
2014-7-17,84.2,71.5,60.8,64.4,58.1,50.0,94,66,34,30.47,30.24,6,0,0,0.00
2014-7-18,82.4,69.9,57.2,60.8,55.3,48.2,100,66,30,30.58,30.47,8,0,0,0.00
2014-7-19,80.6,70.7,62.6,62.6,59.2,53.6,94,69,42,30.60,30.51,7,0,0,0.00
2014-7-20,80.6,71.2,62.6,62.6,59.7,53.6,94,69,44,30.53,30.43,6,0,0,0.00
2014-7-21,86.0,73.8,59.0,66.2,61.1,57.2,94,68,37,30.54,30.45,0,0,0,0.00
2014-7-22,89.6,77.6,64.4,69.8,66.5,62.6,94,71,46,30.52,30.37,10,0,0,0.00
2014-7-23,91.4,80.2,69.8,73.4,69.4,64.4,94,71,49,30.37,30.09,10,1,0,0.00
2014-7-24,80.6,73.4,68.0,69.8,61.3,51.8,94,67,45,30.27,30.15,8,1,0,0.00
2014-7-25,84.2,71.5,59.0,62.6,55.0,48.2,88,59,32,30.37,30.27,9,0,0,0.00
2014-7-26,82.4,71.7,60.8,68.0,62.9,59.0,94,75,48,30.35,30.22,7,0,0,0.00
2014-7-27,87.8,76.6,69.8,71.6,67.8,60.8,94,77,43,30.25,29.99,8,0,0,0.00
2014-7-28,82.4,73.4,66.2,71.6,65.0,57.2,100,77,45,30.05,29.83,8,1,0,0.00
2014-7-29,75.2,68.2,60.8,59.0,54.0,50.0,82,62,41,30.33,30.05,8,1,0,0.00
2014-7-30,80.6,68.5,55.4,59.0,54.3,48.2,94,65,32,30.40,30.32,4,0,0,0.00
2014-7-31,84.2,69.8,57.2,62.6,58.6,55.4,100,72,39,30.49,30.38,10,1,0,0.00
2014-8-1,86.0,70.5,62.6,69.8,65.5,60.8,100,86,51,30.56,30.48,15,0,0,0.00
2014-8-2,78.8,70.2,64.4,68.0,64.7,60.8,100,84,54,30.54,30.43,7,0,0,0.00
2014-8-3,78.8,70.7,66.2,66.2,64.4,62.6,94,81,61,30.47,30.36,6,0,0,0.00
2014-8-4,86.0,76.1,68.0,68.0,64.2,60.8,94,69,43,30.40,30.34,0,0,0,0.00
2014-8-5,91.4,77.3,64.4,66.2,63.0,57.2,100,66,33,30.39,30.23,9,0,0,0.00
2014-8-6,84.2,74.5,66.2,64.4,60.3,53.6,88,63,42,30.28,30.16,9,1,0,0.00
2014-8-7,82.4,70.9,59.0,59.0,54.1,46.4,88,58,32,30.38,30.24,9,1,0,0.00
2014-8-8,82.4,70.0,57.2,59.0,55.0,51.8,94,63,37,30.44,30.36,8,0,0,0.00
2014-8-9,86.0,72.3,59.0,60.8,56.0,46.4,94,62,25,30.47,30.39,6,0,0,0.00
2014-8-10,89.6,74.1,60.8,62.6,57.8,51.8,94,62,29,30.49,30.40,0,0,0,0.00
2014-8-11,87.8,74.3,60.8,64.4,58.6,50.0,94,63,27,30.49,30.42,9,1,0,0.00
2014-8-12,78.8,71.9,64.4,68.0,65.3,62.6,94,80,65,30.44,30.21,10,2,0,0.00
2014-8-13,82.4,72.3,64.4,69.8,66.7,62.6,94,83,54,30.23,29.98,9,1,0,0.00
2014-8-14,80.6,68.4,59.0,62.6,53.0,46.4,94,61,34,30.25,30.14,10,1,0,0.00
2014-8-15,71.6,64.7,53.6,55.4,51.1,48.2,94,64,43,30.33,30.25,5,0,0,0.00
2014-8-16,78.8,66.8,51.8,57.2,51.3,44.6,94,63,32,30.36,30.24,9,0,0,0.00
2014-8-17,82.4,69.9,59.0,64.4,57.3,53.6,94,67,42,30.26,30.14,7,0,0,0.00
2014-8-18,80.6,68.0,55.4,57.2,54.5,50.0,94,66,36,30.27,30.15,9,0,0,0.00
2014-8-19,84.2,71.0,57.2,62.6,56.9,51.8,88,65,35,30.29,30.19,10,0,0,0.00
2014-8-20,86.0,74.4,64.4,66.2,61.8,55.4,94,68,43,30.37,30.27,8,1,0,0.00
2014-8-21,82.4,72.5,64.4,68.0,62.5,55.4,94,73,48,30.40,30.32,9,1,0,0.00
2014-8-22,75.2,69.1,66.2,68.0,63.6,59.0,100,84,65,30.40,30.34,8,0,0,0.00
2014-8-23,73.4,68.7,62.6,64.4,61.0,59.0,94,77,61,30.47,30.39,5,0,0,0.00
2014-8-24,82.4,70.3,60.8,62.6,58.9,53.6,94,71,42,30.52,30.43,9,1,0,0.00
2014-8-25,89.6,73.4,59.0,64.4,59.2,53.6,100,67,33,30.53,30.43,4,0,0,0.00
2014-8-26,89.6,76.4,62.6,66.2,61.1,55.4,94,64,31,30.51,30.38,9,0,0,0.00
2014-8-27,93.2,78.4,62.6,69.8,65.1,60.8,94,67,38,30.42,30.18,8,0,0,0.00
2014-8-28,78.8,72.9,64.4,71.6,54.3,46.4,78,53,34,30.41,30.20,12,3,0,0.00
2014-8-29,80.6,68.0,53.6,55.4,50.9,46.4,94,58,32,30.60,30.41,7,0,0,0.00
2014-8-30,78.8,68.6,53.6,64.4,57.9,51.8,100,71,47,30.63,30.47,9,1,0,0.00
2014-8-31,89.6,76.7,69.8,73.4,67.7,60.8,89,74,52,30.49,30.27,8,0,0,0.00
2014-9-1,89.6,80.7,71.6,73.4,70.1,66.2,94,73,49,30.35,30.23,6,0,0,0.00
2014-9-2,93.2,82.0,69.8,73.4,68.2,64.4,100,66,41,30.28,30.11,7,1,0,0.00
2014-9-3,86.0,76.2,64.4,68.0,58.2,48.2,83,57,29,30.46,30.14,10,1,0,0.00
2014-9-4,89.6,74.5,59.0,66.2,58.6,51.8,94,63,27,30.55,30.42,9,1,0,0.00
2014-9-5,86.0,76.3,64.4,73.4,68.2,62.6,94,77,55,30.51,30.35,10,1,0,0.00
2014-9-6,93.2,80.0,64.4,75.2,69.7,60.8,100,74,38,30.34,30.14,10,2,0,0.00
2014-9-7,80.6,70.0,62.6,62.6,55.5,46.4,94,64,34,30.55,30.29,9,1,0,0.00
2014-9-8,78.8,68.0,57.2,59.0,54.6,46.4,88,64,34,30.65,30.55,10,0,0,0.00
2014-9-9,73.4,66.3,57.2,60.8,57.2,53.6,88,73,53,30.64,30.49,7,0,0,0.00
2014-9-10,80.6,70.6,60.8,62.6,57.4,53.6,88,65,42,30.49,30.35,8,0,0,0.00
2014-9-11,82.4,72.6,66.2,68.0,64.5,53.6,88,76,60,30.37,30.14,10,1,0,0.00
2014-9-12,77.0,67.2,59.0,55.4,50.7,48.2,77,57,36,30.55,30.30,10,2,0,0.00
2014-9-13,66.2,60.4,55.4,62.6,54.7,48.2,94,82,72,30.55,30.44,5,0,0,0.00
2014-9-14,71.6,59.2,50.0,53.6,46.4,41.0,94,66,35,30.62,30.50,8,1,0,0.00
2014-9-15,73.4,60.3,48.2,50.0,46.0,39.2,94,65,31,30.60,30.43,0,0,0,0.00
2014-9-16,71.6,60.5,51.8,59.0,52.6,50.0,100,78,46,30.43,30.29,7,0,0,0.00
2014-9-17,75.2,59.8,48.2,51.8,46.3,39.2,100,67,29,30.42,30.29,7,0,0,0.00
2014-9-18,77.0,61.4,46.4,51.8,47.3,41.0,100,66,29,30.47,30.30,7,0,0,0.00
2014-9-19,68.0,59.0,50.0,50.0,45.3,39.2,88,62,40,30.72,30.47,9,2,0,0.00
2014-9-20,77.0,64.7,53.6,60.8,54.8,48.2,88,71,47,30.70,30.41,9,1,0,0.00
2014-9-21,78.8,69.3,62.6,68.0,64.5,57.2,94,86,65,30.41,29.94,6,0,0,0.00
2014-9-22,71.6,62.4,53.6,66.2,49.8,37.4,100,67,40,30.52,29.98,8,1,0,0.00
2014-9-23,73.4,58.3,42.8,50.0,43.3,39.2,93,62,29,30.76,30.52,9,0,0,0.00
2014-9-24,73.4,61.9,51.8,55.4,50.6,42.8,94,70,35,30.89,30.77,8,0,0,0.00
2014-9-25,66.2,60.6,57.2,57.2,54.4,51.8,94,80,68,30.82,30.57,10,1,0,0.00
2014-9-26,78.8,64.6,51.8,55.4,51.4,42.8,100,67,29,30.59,30.49,9,2,0,0.00
2014-9-27,84.2,68.3,55.4,59.0,54.1,46.4,94,66,28,30.58,30.48,7,0,0,0.00
2014-9-28,89.6,70.5,55.4,60.8,56.9,51.8,94,67,29,30.53,30.35,8,0,0,0.00
2014-9-29,78.8,68.9,60.8,64.4,59.7,57.2,94,75,50,30.36,30.23,4,0,0,0.00
2014-9-30,75.2,66.2,60.8,62.6,59.7,55.4,100,81,50,30.34,30.26,9,0,0,0.00
2014-10-1,66.2,62.3,59.0,60.8,57.7,55.4,94,85,77,30.43,30.34,7,0,0,0.00
2014-10-2,69.8,63.8,59.0,59.0,55.8,53.6,94,76,56,30.49,30.42,8,0,0,0.00
2014-10-3,73.4,62.7,55.4,57.2,51.4,44.6,94,70,38,30.48,30.20,8,0,0,0.00
2014-10-4,68.0,61.4,50.0,66.2,56.3,37.4,100,84,58,30.19,29.85,1,0,0,0.00
2014-10-5,62.6,50.5,42.8,41.0,35.6,30.2,93,59,34,30.36,30.06,8,0,0,0.00
2014-10-6,71.6,55.8,39.2,51.8,44.0,37.4,100,70,33,30.42,30.32,12,2,0,0.00
2014-10-7,75.2,63.9,53.6,60.8,53.4,48.2,94,71,41,30.41,30.24,9,1,0,0.00
2014-10-8,75.2,65.4,55.4,62.6,50.6,39.2,94,62,31,30.30,30.11,9,1,0,0.00
2014-10-9,68.0,56.5,42.8,46.4,40.2,33.8,100,60,28,30.40,30.27,10,1,0,0.00
2014-10-10,64.4,55.0,44.6,46.4,41.6,35.6,87,63,37,30.48,30.40,1,0,0,0.00
2014-10-11,53.6,50.5,46.4,50.0,47.8,44.6,100,91,77,30.53,30.40,7,0,0,0.00
2014-10-12,64.4,50.2,39.2,46.4,39.9,33.8,100,74,32,30.69,30.53,8,0,0,0.00
2014-10-13,64.4,55.0,41.0,60.8,49.9,39.2,100,84,67,30.69,30.58,1,0,0,0.00
2014-10-14,78.8,68.0,60.8,68.0,62.9,60.8,100,85,57,30.58,30.44,9,1,0,0.00
2014-10-15,78.8,71.2,68.0,69.8,66.8,62.6,100,86,69,30.44,30.17,10,2,0,0.00
2014-10-16,75.2,66.5,55.4,69.8,61.9,51.8,100,87,56,30.17,29.99,12,1,0,0.00
2014-10-17,73.4,62.9,55.4,57.2,53.0,46.4,100,74,41,30.06,30.00,8,1,0,0.00
2014-10-18,71.6,58.4,51.8,55.4,49.4,42.8,100,75,40,30.08,29.89,7,0,0,0.00
2014-10-19,55.4,49.8,41.0,44.6,33.6,24.8,72,55,35,30.43,30.08,15,3,0,0.00
2014-10-20,59.0,47.3,35.6,44.6,35.1,26.6,87,65,41,30.48,30.31,9,1,0,0.00
2014-10-21,66.2,54.3,46.4,55.4,49.2,42.8,100,84,59,30.32,30.16,5,0,0,0.00
2014-10-22,55.4,53.3,50.0,53.6,50.0,46.4,94,89,77,30.31,30.12,16,7,0,0.00
2014-10-23,53.6,52.0,50.0,51.8,47.4,42.8,94,85,71,30.15,30.06,15,6,0,0.00
2014-10-24,68.0,56.6,50.0,46.4,42.7,37.4,82,61,42,30.20,30.09,13,3,0,0.00
2014-10-25,69.8,56.9,42.8,46.4,41.0,37.4,87,58,35,30.23,29.92,7,0,0,0.00
2014-10-26,64.4,55.8,46.4,51.8,39.2,33.8,94,56,34,30.19,29.90,12,1,0,0.00
2014-10-27,66.2,53.8,42.8,41.0,36.9,32.0,87,56,30,30.40,30.18,9,0,0,0.00
2014-10-28,69.8,54.1,41.0,53.6,45.8,39.2,94,76,46,30.41,30.26,7,0,0,0.00
2014-10-29,73.4,55.0,46.4,57.2,49.3,39.2,100,85,35,30.31,30.17,10,0,0,0.00
2014-10-30,57.2,48.1,41.0,48.2,39.4,33.8,100,75,44,30.39,30.30,10,1,0,0.00
2014-10-31,53.6,45.4,35.6,44.6,36.7,33.8,100,74,47,30.40,30.24,8,0,0,0.00
2014-11-1,50.0,45.3,41.0,44.6,37.9,32.0,93,76,54,30.24,30.14,13,6,0,0.00
2014-11-2,46.4,42.7,39.2,35.6,25.9,14.0,81,53,31,30.40,30.14,17,9,0,0.00
2014-11-3,62.6,49.2,39.2,28.4,24.0,12.2,57,40,15,30.50,30.40,9,1,0,0.00
2014-11-4,73.4,57.5,44.6,37.4,28.9,19.4,66,38,14,30.51,30.36,9,1,0,0.00
2014-11-5,64.4,54.4,44.6,44.6,37.1,26.6,76,55,26,30.50,30.35,6,0,0,0.00
2014-11-6,50.0,47.4,44.6,50.0,44.9,37.4,100,91,76,30.48,29.94,0,0,0,0.00
2014-11-7,51.8,45.6,37.4,46.4,35.4,26.6,100,69,54,30.31,29.93,9,2,0,0.00
2014-11-8,50.0,42.0,32.0,32.0,26.1,21.2,75,55,35,30.41,30.26,9,1,0,0.00
2014-11-9,60.8,46.9,35.6,37.4,33.2,28.4,93,62,33,30.39,30.23,7,0,0,0.00
2014-11-10,62.6,46.0,32.0,39.2,34.4,32.0,100,70,32,30.53,30.39,7,0,0,0.00
2014-11-11,64.4,50.3,37.4,53.6,44.7,35.6,100,82,59,30.52,30.27,9,0,0,0.00
2014-11-12,66.2,54.1,44.6,59.0,45.8,30.2,94,76,47,30.45,30.22,14,1,0,0.00
2014-11-13,48.2,41.0,32.0,35.6,28.7,24.8,93,64,40,30.49,30.34,10,0,0,0.00
2014-11-14,42.8,35.3,26.6,35.6,23.7,14.0,100,66,33,30.55,30.32,13,2,0,0.00
2014-11-15,42.8,31.7,24.8,26.6,20.0,14.0,93,67,33,30.74,30.55,10,1,0,0.00
2014-11-16,41.0,33.9,23.0,35.6,25.7,21.2,93,73,56,30.75,30.47,5,0,0,0.00
2014-11-17,46.4,40.7,37.4,44.6,39.2,33.8,100,94,71,30.47,29.85,0,0,0,0.00
2014-11-18,44.6,30.0,23.0,35.6,9.6,1.4,71,44,27,30.45,29.95,8,2,0,0.00
2014-11-19,33.8,26.6,19.4,14.0,6.7,3.2,55,44,30,30.63,30.42,9,1,0,0.00
2014-11-20,44.6,33.7,21.2,23.0,16.7,6.8,80,53,33,30.42,30.18,12,1,0,0.00
2014-11-21,35.6,29.3,21.2,15.8,10.3,6.8,80,47,32,30.87,30.40,12,2,0,0.00
2014-11-22,42.8,32.8,17.6,21.2,14.8,10.4,93,54,27,30.87,30.54,9,1,0,0.00
2014-11-23,59.0,46.0,39.2,32.0,25.2,21.2,66,46,27,30.56,30.35,8,0,0,0.00
2014-11-24,73.4,62.0,41.0,62.6,55.5,30.2,100,81,60,30.35,29.87,13,4,0,0.00
2014-11-25,64.4,53.6,39.2,57.2,35.7,26.6,81,53,35,30.52,30.07,6,0,0,0.00
2014-11-26,44.6,36.7,33.8,35.6,34.0,30.2,100,91,61,30.57,30.18,12,3,0,0.00
2014-11-27,37.4,34.9,30.2,33.8,30.9,24.8,93,86,75,30.43,30.21,8,0,0,0.00
2014-11-28,35.6,29.3,21.2,26.6,20.5,14.0,93,71,48,30.65,30.42,12,2,0,0.00
2014-11-29,33.8,27.4,17.6,24.8,18.7,15.8,93,71,51,30.72,30.57,0,0,0,0.00
2014-11-30,46.4,40.7,33.8,37.4,32.1,23.0,81,72,61,30.57,30.42,6,0,0,0.00
2014-12-1,64.4,48.5,39.2,48.2,38.4,24.8,82,69,52,30.82,30.42,12,2,0,0.00
2014-12-2,39.2,36.1,32.0,39.2,26.7,15.8,100,71,51,30.99,30.67,8,1,0,0.00
2014-12-3,46.4,41.3,39.2,42.8,38.5,26.6,100,90,61,30.67,30.32,7,0,0,0.00
2014-12-4,46.4,37.5,30.2,26.6,23.0,17.6,86,58,37,30.89,30.58,12,1,0,0.00
2014-12-5,39.2,34.0,26.6,39.2,28.3,21.2,100,81,60,30.96,30.71,0,0,0,0.00
2014-12-6,44.6,41.2,37.4,44.6,40.6,37.4,100,98,87,30.71,30.45,14,2,0,0.00
2014-12-7,41.0,36.1,26.6,37.4,19.8,5.0,93,55,28,31.01,30.58,17,9,0,0.00
2014-12-8,32.0,26.5,21.2,26.6,14.1,-0.4,80,61,36,31.09,30.73,10,2,0,0.00
2014-12-9,39.2,35.5,32.0,37.4,33.5,26.6,100,93,80,30.73,30.08,15,5,0,0.00
2014-12-10,39.2,34.4,32.0,32.0,28.2,24.8,87,79,65,30.01,29.95,13,4,0,0.00
2014-12-11,37.4,33.2,30.2,26.6,22.7,17.6,86,66,45,30.24,29.96,4,0,0,0.00
2014-12-12,37.4,33.3,30.2,26.6,22.7,19.4,75,65,60,30.36,30.24,10,3,0,0.00
2014-12-13,42.8,37.7,33.8,30.2,27.3,23.0,75,67,49,30.36,30.27,14,4,0,0.00
2014-12-14,46.4,41.0,37.4,32.0,31.1,30.2,75,68,57,30.34,30.22,13,4,0,0.00
2014-12-15,51.8,39.3,30.2,33.8,30.4,26.6,93,73,47,30.49,30.33,7,0,0,0.00
2014-12-16,44.6,38.3,28.4,42.8,35.2,26.6,100,89,76,30.48,30.21,0,0,0,0.00
2014-12-17,55.4,45.8,41.0,44.6,39.2,28.4,100,79,54,30.25,30.14,7,0,0,0.00
2014-12-18,41.0,38.6,35.6,28.4,25.6,23.0,70,60,52,30.36,30.23,9,2,0,0.00
2014-12-19,37.4,34.3,32.0,28.4,22.7,19.4,70,63,52,30.56,30.32,12,3,0,0.00
2014-12-20,32.0,31.3,30.2,24.8,22.0,19.4,75,68,64,30.67,30.55,9,0,0,0.00
2014-12-21,35.6,32.6,30.2,28.4,27.0,23.0,86,80,75,30.71,30.63,10,1,0,0.00
2014-12-22,42.8,37.5,33.8,42.8,34.1,28.4,100,88,81,30.70,30.51,5,0,0,0.00
2014-12-23,46.4,44.9,42.8,46.4,44.3,42.8,100,97,93,30.52,30.43,7,0,0,0.00
2014-12-24,51.8,47.0,44.6,51.8,47.0,44.6,100,100,100,30.46,29.88,0,0,0,0.00
2014-12-25,60.8,49.8,41.0,59.0,37.0,28.4,100,63,41,30.47,29.85,9,1,0,0.00
2014-12-26,51.8,39.5,30.2,32.0,29.7,28.4,93,71,41,30.60,30.47,9,0,0,0.00
2014-12-27,57.2,41.5,30.2,37.4,33.2,28.4,100,76,41,30.62,30.42,0,0,0,0.00
2014-12-28,53.6,44.3,39.2,44.6,37.4,28.4,93,77,61,30.44,30.22,8,0,0,0.00
2014-12-29,42.8,36.3,26.6,30.2,21.8,17.6,86,58,36,30.64,30.43,10,1,0,0.00
2014-12-30,32.0,28.0,23.0,23.0,16.0,10.4,86,62,44,30.77,30.63,10,0,0,0.00
2014-12-31,32.0,25.5,17.6,17.6,12.5,6.8,86,61,35,30.73,30.55,8,0,0,0.00
2015-1-1,37.4,26.9,14.0,19.4,12.1,5.0,93,59,28,30.55,30.33,12,1,0,0.00
2015-1-2,42.8,33.1,24.8,23.0,19.2,15.8,86,59,34,30.84,30.37,6,0,0,0.00